Regional Weather Roundup
Issued by NWS

Home | Current Version | Previous Version | Text Only | Print | Product List | Glossary Off
Versions: 1 2 3 4 5 6 7 8 9 10 11 12 13 14 15 16 17 18 19 20 21 22 23 24 25 26 27 28 29 30 31 32 33 34 35 36 37 38 39 40 41 42 43 44 45 46 47 48 49 50

581
ASUS43 KLSX 210810
RWRMO

WEATHER SUMMARY FOR MISSOURI
NATIONAL WEATHER SERVICE SPRINGFIELD MO
300 AM CDT MON MAY 21 2018

NOTE: "FAIR" INDICATES FEW OR NO CLOUDS BELOW 12,000 FEET WITH NO
       SIGNIFICANT WEATHER AND/OR OBSTRUCTIONS TO VISIBILITY.
       CURRENT SKY AND/OR WEATHER CONDITIONS ARE NOT AVAILABLE FOR
       CHILLICOTHE AND FARMINGTON.

MOZ001>031-035>038-043-044-053-054-210900-
...NORTHERN AND WESTERN MISSOURI...

CITY           SKY/WX    TMP DP  RH WIND       PRES   REMARKS
KANSAS CTY INT CLOUDY    62  61  96 W6        30.03S FOG
KANSAS C DTWN  MOCLDY    64  60  87 W5        30.02S
LEE`S SUMMIT   CLOUDY    64  64 100 W5        30.03F
ST JOSEPH      CLOUDY    60  60 100 NW7       30.02F
CHILLICOTHE      N/A     67  66  97 CALM      30.01S
KIRKSVILLE     LGT RAIN  65  64  97 SE6       30.03F

$$
MOZ066>068-077>081-088>096-101>105-210900-
...SOUTHWEST MISSOURI...

CITY           SKY/WX    TMP DP  RH WIND       PRES   REMARKS
SPRINGFIELD    CLOUDY    67  64  90 S6        30.03F
JOPLIN         CLOUDY    64  64 100 N3        30.04F
BRANSON        MOCLDY    66  66 100 S5        30.04F

$$
MOZ032>034-039>042-045>050-055>058-069>072-210900-
...CENTRAL MISSOURI...

CITY           SKY/WX    TMP DP  RH WIND       PRES   REMARKS
COLUMBIA       MOCLDY    64  62  93 SE10      30.02F
JEFFERSON CITY LGT RAIN  65  64  97 E8        30.02F
ROLLA          CLOUDY    63  62  97 SE6       30.04F
SEDALIA        CLOUDY    66  66 100 SW6       30.02F
WHITEMAN AFB   CLOUDY    65  65  98 S5        29.98F
WARRENSBURG    MOCLDY    64  63  94 CALM      30.01F
OSAGE BEACH    CLOUDY    65  64  97 SE8       30.03F

$$
MOZ051-052-059>065-210900-
...EAST CENTRAL MISSOURI...

CITY           SKY/WX    TMP DP  RH WIND       PRES   REMARKS
ST LOUIS INTL  LGT RAIN  66  65  96 CALM      30.03F
SPIRIT OF STL  CLOUDY    65  64  97 S3        30.02F
ST CHARLES     CLOUDY    67  66  97 CALM      30.02F

$$
MOZ072>076-082>087-097>100-106>115-210900-
...SOUTH CENTRAL AND SOUTHEAST MISSOURI...

CITY           SKY/WX    TMP DP  RH WIND       PRES   REMARKS
CAPE GIRARDEAU RAIN      69  67  93 W6        30.09S FOG
FARMINGTON     CLOUDY    64  63  96 SE6       30.08F
POPLAR BLUFF   MOCLDY    68  68 100 E7        30.07F
WEST PLAINS    CLOUDY    67  65  93 SE7       30.08S

$$




USA.gov is the U.S. government's official web portal to all federal, state and local government web resources and services.